Total_Precipitation_Accumulation
0.55 0.59 0.64 0.65 0.65 0.69 0.77 0.83 0.83 0.79 0.81 0.81 0.59 0.48 0.47 0.48 0.50 0.44 0.47 0.33 0.17 0.12 0.12 0.13 0.13 0.17 0.26 0.43 0.61 0.74 0.95 1.09 1.14 1.17 1.17 1.18 1.19 1.22
0.62 0.69 0.71 0.69 0.64 0.68 0.75 0.85 0.92 0.91 0.80 0.66 0.53 0.46 0.45 0.44 0.41 0.33 0.30 0.25 0.15 0.11 0.10 0.11 0.12 0.14 0.19 0.33 0.48 0.61 0.76 0.88 0.99 1.09 1.14 1.16 1.18 1.23
0.65 0.69 0.67 0.64 0.65 0.66 0.71 0.74 0.79 0.86 0.74 0.58 0.50 0.50 0.49 0.52 0.47 0.35 0.26 0.22 0.17 0.13 0.09 0.08 0.10 0.16 0.24 0.31 0.41 0.50 0.57 0.66 0.79 0.92 1.03 1.11 1.15 1.17
0.70 0.70 0.65 0.59 0.58 0.55 0.58 0.60 0.65 0.73 0.65 0.53 0.48 0.48 0.52 0.55 0.53 0.44 0.34 0.27 0.25 0.17 0.11 0.09 0.09 0.12 0.15 0.19 0.28 0.42 0.52 0.57 0.61 0.66 0.74 0.85 0.96 1.04
0.62 0.59 0.55 0.53 0.51 0.47 0.46 0.44 0.44 0.51 0.54 0.52 0.54 0.53 0.54 0.49 0.48 0.48 0.44 0.42 0.32 0.24 0.16 0.12 0.11 0.12 0.12 0.13 0.18 0.28 0.41 0.54 0.60 0.64 0.67 0.74 0.81 0.88
0.51 0.47 0.47 0.47 0.45 0.42 0.43 0.38 0.35 0.40 0.47 0.47 0.49 0.52 0.52 0.48 0.47 0.50 0.52 0.55 0.45 0.33 0.28 0.22 0.19 0.15 0.14 0.12 0.13 0.18 0.29 0.45 0.60 0.66 0.71 0.81 0.88 0.89
0.43 0.39 0.39 0.37 0.37 0.38 0.36 0.31 0.27 0.27 0.29 0.33 0.36 0.38 0.41 0.41 0.40 0.41 0.49 0.61 0.58 0.44 0.40 0.39 0.36 0.31 0.27 0.21 0.14 0.12 0.19 0.34 0.54 0.67 0.74 0.83 0.95 1.01
0.33 0.32 0.30 0.28 0.31 0.32 0.28 0.27 0.24 0.19 0.18 0.24 0.25 0.28 0.31 0.31 0.31 0.38 0.49 0.54 0.64 0.64 0.59 0.58 0.53 0.49 0.41 0.31 0.22 0.13 0.12 0.20 0.34 0.49 0.64 0.78 0.89 1.02
0.23 0.23 0.21 0.21 0.25 0.26 0.23 0.18 0.17 0.16 0.15 0.19 0.21 0.18 0.20 0.23 0.26 0.36 0.51 0.66 0.76 0.81 0.76 0.75 0.62 0.55 0.50 0.42 0.31 0.19 0.13 0.12 0.19 0.27 0.37 0.53 0.66 0.78
0.18 0.18 0.19 0.19 0.20 0.19 0.16 0.13 0.11 0.12 0.14 0.15 0.16 0.15 0.13 0.15 0.20 0.25 0.32 0.46 0.65 0.75 0.78 0.88 0.85 0.76 0.70 0.63 0.51 0.33 0.22 0.17 0.18 0.20 0.23 0.29 0.40 0.53
0.16 0.17 0.17 0.16 0.20 0.17 0.14 0.12 0.11 0.11 0.13 0.15 0.14 0.14 0.13 0.12 0.11 0.12 0.13 0.14 0.23 0.30 0.34 0.51 0.71 0.79 0.86 0.85 0.74 0.58 0.42 0.30 0.25 0.27 0.28 0.29 0.35 0.43
0.21 0.21 0.22 0.19 0.19 0.17 0.14 0.15 0.13 0.10 0.09 0.11 0.11 0.12 0.11 0.10 0.09 0.07 0.07 0.08 0.09 0.13 0.11 0.16 0.29 0.41 0.58 0.66 0.67 0.65 0.58 0.53 0.46 0.37 0.31 0.31 0.41 0.44
0.27 0.27 0.24 0.23 0.20 0.18 0.16 0.16 0.15 0.12 0.10 0.09 0.09 0.09 0.10 0.09 0.07 0.06 0.05 0.06 0.08 0.11 0.11 0.13 0.17 0.20 0.29 0.40 0.48 0.52 0.56 0.59 0.57 0.54 0.48 0.43 0.45 0.51
0.35 0.33 0.30 0.27 0.22 0.21 0.19 0.19 0.19 0.16 0.13 0.11 0.09 0.08 0.08 0.08 0.06 0.05 0.04 0.04 0.06 0.09 0.10 0.11 0.17 0.18 0.20 0.25 0.31 0.34 0.41 0.53 0.64 0.72 0.68 0.63 0.60 0.65
0.45 0.44 0.40 0.37 0.29 0.25 0.25 0.24 0.20 0.16 0.14 0.12 0.09 0.07 0.05 0.05 0.05 0.04 0.03 0.03 0.05 0.05 0.04 0.04 0.10 0.17 0.19 0.22 0.24 0.26 0.31 0.41 0.51 0.66 0.79 0.83 0.80 0.78
0.55 0.53 0.48 0.46 0.39 0.32 0.30 0.27 0.20 0.19 0.17 0.11 0.08 0.07 0.05 0.05 0.04 0.03 0.03 0.02 0.02 0.03 0.02 0.02 0.05 0.09 0.16 0.20 0.23 0.26 0.29 0.36 0.39 0.46 0.65 0.86 1.02 1.09
0.65 0.61 0.56 0.49 0.43 0.38 0.32 0.28 0.25 0.23 0.19 0.12 0.09 0.08 0.06 0.05 0.04 0.03 0.03 0.02 0.01 0.01 0.01 0.01 0.02 0.05 0.08 0.09 0.17 0.23 0.27 0.30 0.29 0.29 0.36 0.55 0.80 1.00
0.73 0.65 0.58 0.49 0.41 0.38 0.35 0.32 0.27 0.21 0.16 0.12 0.09 0.07 0.05 0.03 0.03 0.03 0.02 0.02 0.01 0.01 0.01 0.01 0.02 0.03 0.06 0.09 0.06 0.10 0.15 0.18 0.20 0.24 0.31 0.35 0.46 0.57
0.70 0.64 0.53 0.47 0.40 0.35 0.32 0.28 0.23 0.18 0.14 0.11 0.09 0.06 0.04 0.03 0.02 0.02 0.01 0.01 0.01 0.01 0.01 0.01 0.02 0.02 0.04 0.07 0.13 0.07 0.05 0.07 0.10 0.18 0.29 0.29 0.31 0.33
0.64 0.59 0.50 0.42 0.37 0.33 0.28 0.25 0.19 0.15 0.12 0.10 0.08 0.05 0.04 0.02 0.01 0.01 0.01 0.01 0.00 0.00 0.00 0.00 0.01 0.02 0.03 0.05 0.08 0.12 0.11 0.07 0.07 0.10 0.17 0.21 0.22 0.18
0.56 0.52 0.44 0.37 0.32 0.29 0.24 0.19 0.15 0.11 0.10 0.08 0.06 0.04 0.03 0.01 0.01 0.00 0.00 0.00 0.00 0.00 0.00 0.00 0.00 0.01 0.02 0.04 0.07 0.09 0.12 0.12 0.11 0.11 0.12 0.16 0.20 0.23
0.44 0.41 0.37 0.31 0.25 0.21 0.18 0.15 0.12 0.09 0.07 0.06 0.04 0.02 0.02 0.01 0.01 0.00 0.00 0.00 0.00 0.00 0.00 0.00 0.00 0.01 0.03 0.06 0.08 0.08 0.09 0.13 0.15 0.13 0.12 0.11 0.13 0.16
0.33 0.29 0.27 0.23 0.18 0.13 0.11 0.10 0.08 0.05 0.04 0.03 0.02 0.01 0.01 0.01 0.00 0.00 0.00 0.00 0.00 0.00 0.00 0.00 0.00 0.00 0.01 0.03 0.06 0.08 0.10 0.13 0.18 0.23 0.23 0.14 0.06 0.04